ONEWEB-0051 (45155 NORAD) Tracking and Keplerian Element Data

This shows tracking and keplerian element data for the satellite.

Feedback or suggestion? Click here.




ElementValue
Catalog45155
NameONEWEB-0051
Epoch Orbit842
Epoch Day87.89181742
Epoch Year2020
RAAN147.2108
Inclination87.4974
Eccentricity0.0025403
Argument of Perigee109.8145
Mean Anonmoly250.5834
Mean Motion15.07796969
Decay Rate-0.00215679
L11 45155U 20008AA 20087.89181742 -.00215679 00000-0 -14433-1 0 9995
L22 45155 87.4974 147.2108 0025403 109.8145 250.5834 15.07796969 8426

Live tracking and technical data element details for ONEWEB-0051 (NORAD 45155). ONEWEB-0051 can be tracked NOW for your location showing map with azimuth and elevation plus other details from your city location.

Track the satellite on the map from your city or location and see movement details for azimuth, elevation, latitude, longitude, range, height, and movement on the map or in text.







IsCatalogInMostPopularTable: catalog: 45155, numindb: 10
Update: records affected: 1



GetName: 45155 ONEWEB-0051

Hit Count: updated at: Tue, 31 Mar 2020 12:34:30 GMT